Home > Weather > Guadalajara > Past weeks

Flag for Mexico Weather for the Past 2 Weeks in Guadalajara, Jalisco, Mexico

Now
46 °F

Clear.


Feels Like: 46 °F
Forecast: 40 / 80 °F
Wind: No wind

Location: Don Miguel / Guadalaj

Current Time: Feb 14, 2016 at 2:12:49 AM

Latest Report: Feb 14, 2016 at 12:53 AM


Visibility: 10 mi

Pressure: 30.19 "Hg (25.03 "Hg at 1543m altitude)

Humidity: 46%

Dew point: 27 °F

Location of GuadalajaraLocation

Historic Weather in Guadalajara — Graph

°F

Guadalajara Temperature Yesterday

Maximum temperature yesterday: 77 °F (at 3:46 PM)
Minimum temperature yesterday: 41 °F (at 7:54 AM)
Average temperature yesterday: 59 °F

High & Low Weather Summary for the Past Weeks

 TemperatureHumidityPressure
High81 °F (Feb 1, 2:48 PM)93% (Jan 31, 6:53 AM)30.42 "Hg (Jan 31, 6:53 AM)
Low30 °F (Feb 3, 7:47 AM)5% (Feb 3, 4:47 PM)29.76 "Hg (Feb 2, 2:47 PM)
Average59 °F38%30.14 "Hg
* Reported Jan 30 1:49 AM — Feb 14 12:53 AM, Guadalajara, Weather by CustomWeather, © 2016

Note: Actual official high and low records may vary slightly from our data, if they occured in-between our weather recording intervals... More about our weather records

Advertising

Guadalajara Weather History for the Previous 24 Hours

 ConditionsComfort  
Time TempWeatherWind HumidityBarometerVisibility
12:53 AM
Sun, Feb 14
46 °FClear.No wind46%30.19 "Hg10 mi
12:02 AM50 °FClear.3 mph40%30.19 "Hg10 mi
10:52 PM
Sat, Feb 13
50 °FClear.No wind37%30.19 "Hg10 mi
9:51 PM52 °FClear.No wind32%30.18 "Hg10 mi
8:46 PM57 °FClear.No wind27%29.96 "Hg10 mi
7:45 PM63 °FClear.No wind20%30.14 "Hg10 mi
4:48 PM77 °FScattered clouds.6 mph10%30.13 "Hg8 mi
3:46 PM77 °FScattered clouds.7 mph10%30.14 "Hg8 mi
1:51 PM75 °FPartly sunny.7 mph10%30.22 "Hg10 mi
11:48 AM66 °FPartly sunny.No wind13%30.06 "Hg10 mi
10:46 AM64 °FPartly sunny.7 mph14%30.33 "Hg10 mi
9:45 AM59 °FScattered clouds.10 mph16%30.34 "Hg10 mi
8:54 AM55 °FPartly sunny.No wind24%30.13 "Hg10 mi
7:54 AM41 °FPartly sunny.5 mph49%30.33 "Hg10 mi
5:50 AM43 °FClear.No wind36%30.04 "Hg10 mi
4:49 AM45 °FClear.No wind39%30.27 "Hg10 mi
Weather by CustomWeather, © 2016

See weather overviewHow to use our weather pages